Location: Unspecified
(0.0000°N, 0.0000°E)
Time: 01:15:06
(UTC+00:00)

RAX (USA 218) - Visible Passes

Search period start: 27 February 2021 00:00
Search period end: 09 March 2021 00:00
Orbit: 622 x 652 km, 72.0° (Epoch: 01 June)

Date Brightness Start Highest point End Pass type
(mag) Time Alt. Az. Time Alt. Az. Time Alt. Az.
02 Mar ? 19:31:01 10° SSE 19:32:14 16° SSE 19:32:14 16° SSE visible
03 Mar ? 19:48:53 10° S 19:51:57 42° S 19:51:57 42° S visible
04 Mar ? 20:07:46 10° SW 20:11:57 39° WNW 20:11:57 39° WNW visible
05 Mar ? 18:48:11 10° SSE 18:51:40 22° ESE 18:54:55 11° NE visible
05 Mar ? 20:28:00 10° WSW 20:30:33 15° WNW 20:32:17 12° NW visible
06 Mar ? 19:05:51 10° S 19:10:17 61° ESE 19:14:41 10° NNE visible
07 Mar ? 19:24:34 10° SSW 19:28:52 46° WNW 19:33:09 10° N visible
08 Mar ? 19:44:30 10° WSW 19:47:29 17° WNW 19:50:27 10° NNW visible
